0 HST 1 20580U 90037B 25257.98363641 .00005715 00000-0 20580-3 0 9991 2 20580 28.4675 155.8287 0002391 347.6375 12.4161 15.26314486746412 0 ISS (ZARYA) 1 25544U 98067A 25258.12535402 .00014378 00000-0 25658-3 0 9996 2 25544 51.6329 221.2965 0004312 341.0386 19.0441 15.50311716529117 0 CXO 1 25867U 99040B 25259.35019206 .00000941 00000-0 00000-0 0 9993 2 25867 51.3649 125.8051 8285650 310.4265 0.3581 0.37804868 16283